Location: Nasgenstadt
(48.2786°N, 9.7553°E)
Time: 16:36:42
(UTC+01:00)

ISS - Pass Details

Date: 17 November 2017
Orbit: 402 x 407 km, 51.6° (Epoch: 22 November)

Event Time Altitude Azimuth Distance (km) Brightness Sun altitude
Exits shadow 06:21:01 10° 238° (WSW) 1,471 -1.4 -11.7°
Reaches altitude 10° 06:21:22 10° 232° (SW) 1,451 -1.4 -11.6°
Maximum altitude 06:21:39 10° 227° (SW) 1,445 -1.3 -11.6°
Drops below altitude 10° 06:21:55 10° 222° (SW) 1,450 -1.3 -11.5°
Sets 06:25:51 0° 174° (S) 2,302 0.3 -10.9°
